RH
85 86 85 84 83 81 76 72 63 60 59 63 71 55 54 54 60 70 79 79 77 77 79 79 81 82 83 84 86 87 92 98 100
88 88 84 83 80 79 75 73 62 64 68 71 54 54 54 52 72 81 80 78 76 76 76 76 78 79 81 81 83 84 77 83 92
87 85 82 81 80 78 77 69 58 69 75 60 62 62 63 71 76 78 78 77 81 71 75 77 84 77 78 80 80 82 82 82 81
86 83 80 78 78 77 71 61 62 60 66 69 67 73 82 81 79 76 74 74 79 78 72 82 83 82 89 76 81 80 78 84 83
87 81 76 68 55 61 54 51 45 48 53 69 71 82 92 87 80 69 72 78 92 93 94 94 88 87 87 84 82 80 91 90 93
47 40 33 30 41 47 41 40 42 45 68 71 71 77 75 71 69 72 68 74 77 80 90 88 90 89 87 93 78 83 77 78 92
32 30 28 34 46 49 47 44 44 51 65 66 66 73 67 76 84 76 78 76 70 86 95 95 93 94 86 95 88 88 80 86 88
30 32 33 38 43 48 48 45 44 44 61 62 62 75 73 82 76 77 78 74 80 96 98 93 91 95 93 92 92 88 93 94 96
39 38 37 35 36 50 50 47 46 51 61 62 58 69 74 75 76 76 75 79 78 92 98 94 90 89 88 89 96 95 97 96 95
44 42 39 37 37 49 50 51 51 54 61 59 51 52 69 69 74 73 76 78 78 79 95 97 96 98 98 97 93 91 90 89 90
45 43 40 37 37 48 49 51 52 52 55 57 54 49 43 42 41 43 65 82 85 86 94 97 95 92 93 92 91 90 86 84 83
46 44 40 38 36 42 50 52 52 51 53 55 56 56 49 47 50 47 39 76 87 91 95 94 94 92 91 92 86 83 82 82 82
45 43 41 38 38 38 48 53 53 51 50 52 52 50 48 49 51 52 48 44 65 87 93 92 84 77 75 76 77 80 81 81 81
43 43 38 37 38 38 49 53 52 52 52 50 50 50 50 45 47 52 54 56 56 50 62 85 86 84 80 82 80 77 81 82 82
45 45 39 38 39 38 45 54 55 54 54 54 52 52 51 49 49 49 53 57 63 66 58 63 86 89 86 81 80 80 80 82 82
47 45 40 40 40 40 43 52 57 58 57 60 64 64 60 51 51 46 51 51 60 70 70 56 50 70 90 90 86 82 80 80 80
47 44 41 39 40 42 41 53 62 64 61 65 68 76 62 67 48 46 45 49 52 72 75 69 54 43 44 50 63 88 86 83 82
44 45 39 39 38 40 42 49 55 69 67 64 63 91 79 68 62 46 46 46 49 68 77 70 62 47 50 52 51 63 93 87 80
47 46 40 38 38 39 42 45 51 62 64 68 64 50 59 74 73 50 50 49 50 68 73 71 66 64 63 61 59 58 69 66 64
51 48 43 42 41 39 41 44 45 54 60 52 55 46 53 51 64 77 54 51 55 66 70 71 71 70 68 65 58 46 51 59 62
Wind_Speed
16 15 15 14 14 13 13 13 14 17 17 18 19 18 16 14 14 14 16 15 13 13 13 13 13 13 14 14 14 15 14 13 16
17 15 15 14 14 13 13 13 14 17 18 18 18 15 14 16 19 19 17 15 15 14 13 13 13 14 14 14 15 15 15 15 14
16 15 14 14 14 14 14 14 16 18 19 19 19 17 20 23 23 21 19 16 15 14 14 14 13 14 13 14 15 14 14 15 15
17 16 15 14 13 14 15 16 20 20 18 21 18 19 22 24 23 20 18 16 16 14 15 14 14 14 13 13 13 14 15 14 15
16 17 17 16 16 16 18 22 23 19 17 20 18 21 23 23 22 21 18 16 14 14 14 16 18 15 14 14 15 15 15 18 16
17 16 18 20 21 22 22 22 22 18 20 19 18 21 22 22 20 19 16 16 15 16 16 14 15 15 14 15 16 15 16 15 17
17 17 19 22 22 19 20 19 17 19 21 17 16 19 19 21 23 19 19 17 15 13 11 14 16 16 18 17 18 19 18 18 18
18 19 19 21 19 18 17 18 18 18 20 16 15 17 19 20 21 18 16 16 15 17 18 18 18 19 19 19 18 17 17 18 18
17 17 17 18 19 20 17 17 17 19 19 16 17 17 17 17 19 19 18 16 14 17 17 17 17 18 18 19 19 22 22 22 21
17 16 16 17 19 23 21 21 20 19 20 17 16 18 17 15 16 15 16 17 14 13 18 18 19 21 23 23 21 20 19 18 18
16 16 16 17 18 22 21 20 20 20 19 18 17 18 18 16 15 14 13 15 14 11 14 16 19 19 19 18 17 17 17 17 18
17 17 17 17 18 20 22 22 20 20 19 18 16 15 15 15 15 16 15 16 16 15 12 13 17 17 17 16 16 16 17 17 17
18 18 18 18 19 19 21 24 22 22 20 19 17 14 13 12 13 13 15 14 14 15 15 15 14 14 14 15 15 16 17 16 16
20 20 20 20 20 21 22 24 25 25 23 21 18 16 14 14 12 13 13 14 15 15 15 18 19 17 15 15 16 15 15 15 15
22 20 21 21 21 22 23 24 23 23 24 23 19 15 13 11 11 11 11 11 12 13 14 15 17 17 17 16 16 15 15 15 15
24 22 23 23 23 22 24 24 26 25 25 22 18 13 11 9 9 9 9 10 10 11 13 13 13 15 17 16 15 15 14 14 14
25 26 25 25 24 25 26 28 27 27 26 16 11 2 4 6 9 8 10 9 10 10 11 11 12 12 13 13 13 15 14 14 13
30 28 27 26 26 27 28 30 28 30 22 26 7 3 3 6 6 8 9 9 9 11 11 10 10 10 10 10 11 12 15 14 14
31 30 29 28 27 27 29 29 30 32 27 25 9 5 9 3 2 6 10 9 10 11 13 11 9 7 7 8 9 10 13 15 14
32 30 30 30 29 29 28 29 29 29 29 20 15 8 11 9 5 3 6 9 11 10 10 9 9 6 5 6 9 11 13 15 14
Wind_Direction
121 117 114 110 107 103 100 97 99 105 102 98 106 103 105 106 105 97 90 88 87 84 84 78 76 72 70 67 68 64 62 60 56
122 120 116 115 112 109 106 103 107 109 102 104 110 103 99 104 102 99 95 92 90 89 81 79 77 73 71 69 69 71 65 59 56
124 120 118 117 115 113 109 108 114 109 103 112 110 98 100 98 97 95 94 93 86 83 84 82 80 76 71 71 69 70 68 70 66
128 125 121 119 117 114 113 113 117 113 109 114 108 107 105 102 99 93 90 87 82 83 85 85 79 74 68 68 72 72 69 71 77
132 131 126 121 117 114 114 118 117 111 115 119 108 112 108 100 97 95 87 86 72 103 88 82 80 73 70 73 73 73 75 70 79
132 129 126 123 120 114 117 121 120 112 120 115 112 114 111 103 98 98 88 97 81 75 75 75 76 71 78 79 79 77 71 73 66
130 126 125 125 126 123 122 122 120 123 126 120 117 116 109 107 102 101 94 93 92 78 77 94 83 84 87 81 85 80 75 73 71
135 130 130 130 129 126 126 131 124 134 132 122 113 126 114 106 103 101 95 91 91 71 87 90 88 85 90 84 81 80 85 80 78
141 137 139 135 134 132 124 132 132 128 132 125 116 125 123 113 106 104 100 94 94 69 82 95 89 89 90 88 90 83 76 69 66
149 148 143 142 138 139 127 126 128 126 130 123 115 122 125 124 120 114 108 102 95 85 67 89 92 95 93 86 80 75 71 67 63
157 154 151 149 146 142 139 137 130 123 129 123 117 114 114 114 116 119 120 111 92 86 70 81 93 89 84 81 79 74 71 69 65
165 165 160 157 156 150 143 142 138 133 126 125 125 121 115 113 108 103 106 118 111 94 84 76 81 84 83 79 74 73 72 69 66
177 171 167 164 158 161 151 149 143 139 134 130 127 126 119 114 112 107 100 106 109 101 105 85 85 87 86 81 78 75 71 66 63
187 175 170 167 167 167 157 151 148 141 138 137 133 129 120 112 111 111 106 106 102 100 102 109 102 92 88 84 78 71 67 63 58
185 178 175 170 169 167 166 157 154 150 142 133 130 132 129 120 110 114 114 113 111 104 103 113 112 97 85 82 77 71 64 57 52
188 183 180 177 177 173 170 163 158 151 149 130 120 116 128 138 125 121 124 120 124 123 114 107 109 112 98 83 75 66 60 52 45
194 188 186 180 179 179 175 168 157 157 158 151 125 105 101 126 147 138 137 131 130 139 130 115 107 104 96 85 75 66 57 48 36
194 194 189 185 185 181 180 179 174 167 172 168 147 127 182 146 161 150 150 137 143 143 151 129 116 112 94 76 66 62 53 44 33
196 195 192 187 186 186 185 184 184 179 178 186 207 182 141 153 142 160 162 155 145 148 155 146 132 119 89 65 54 44 41 35 29
199 198 194 191 189 190 187 187 192 193 190 184 177 168 165 155 144 155 159 148 155 157 162 162 148 126 89 58 41 28 28 29 28